Location: Killam
(52.7910°N, 111.8608°W)
Time: 09:58:33
(UTC+00:00)

SR - Pass Details

Date: 20 February 2026
Orbit: 573 x 848 km, 66.7° (Epoch: 7 March)

Event Time Altitude Azimuth Distance (km) Brightness Sun altitude
Exits shadow 11:06:10 27° 93° (E) 1,175 ? -31.4°
Drops below altitude 10° 11:09:08 10° 56° (NE) 1,999 ? -31.0°
Sets 11:11:42 0° 45° (NE) 2,954 ? -30.7°
